GFSNGP_sfc_rhum_114.txt.gz
RH
68 57 37 55 73 79 57 28 30 21 17 23 34 44 49 47 47 49 48 54 54 60 70 76 82 85 85 87 90 82 79 78 75 73 69 72 74 73 77 84 87 90 95 95
56 58 40 41 58 50 54 54 30 26 20 15 28 39 48 48 47 53 54 53 56 57 58 71 87 83 85 86 84 87 89 80 73 78 73 75 76 79 78 77 76 75 82 95
51 39 52 57 58 46 42 41 44 48 32 44 40 50 55 53 55 55 56 55 56 56 57 58 74 88 89 89 89 85 86 89 84 78 81 78 72 76 79 83 80 82 85 89
57 44 80 45 42 39 42 41 42 38 46 66 71 77 71 62 59 57 56 56 56 54 53 53 54 73 79 86 86 81 81 84 86 90 86 78 80 76 75 78 84 87 86 85
62 53 33 54 41 54 58 53 56 46 60 75 69 61 74 59 56 58 58 56 55 52 51 51 55 60 71 76 82 80 84 82 84 86 90 93 86 85 77 78 82 85 88 91
52 59 59 51 34 33 47 89 62 54 63 65 55 75 88 67 56 55 53 52 53 52 49 52 54 56 72 78 78 83 84 87 81 85 88 90 96 90 86 77 78 89 91 95
57 58 39 44 44 40 78 86 74 69 79 67 73 93 86 64 59 54 53 54 50 52 52 54 54 56 63 72 81 77 76 80 80 81 87 88 95 97 97 98 98 99 98 98
62 68 61 45 46 70 66 64 87 79 78 76 80 80 73 63 63 61 55 54 52 52 54 53 54 59 60 68 71 75 75 77 78 82 85 88 96 98 99 98 98 99 99 98
63 50 46 51 73 79 71 76 83 69 64 72 76 72 67 72 68 66 60 56 54 52 54 55 54 59 64 72 67 73 75 79 80 80 82 86 94 97 98 98 99 99 98 97
95 89 94 93 84 73 74 82 85 70 68 67 69 67 61 56 56 58 61 58 54 54 56 58 56 59 63 66 66 70 76 81 82 86 90 90 89 93 95 96 96 96 96 96
89 81 93 92 94 92 88 82 74 62 60 60 60 62 61 62 62 63 62 57 58 63 62 58 56 60 62 63 67 74 81 82 84 86 89 92 96 95 96 98 92 94 95 94
98 98 99 98 98 95 94 97 96 68 69 65 62 67 64 68 66 63 65 62 65 67 66 62 59 62 65 66 69 76 80 83 86 85 86 85 87 94 94 94 92 91 89 91
100 100 99 100 95 97 99 100 100 99 93 69 66 64 68 76 89 89 86 86 84 85 79 76 76 77 78 79 81 87 88 86 85 86 86 86 86 87 93 95 91 89 88 87
99 99 100 98 99 100 99 99 96 70 74 80 64 64 70 83 89 93 94 93 91 89 90 88 88 91 90 90 89 88 92 89 89 89 92 93 92 92 88 88 93 96 94 93
72 71 90 97 93 94 83 88 81 69 69 68 62 61 62 69 76 85 86 88 87 89 91 89 89 92 88 86 87 91 90 90 89 88 87 86 85 84 81 83 88 92 91 90
70 59 56 59 61 63 72 71 70 70 71 72 70 71 70 66 63 68 71 76 86 92 91 89 90 91 89 86 85 87 86 84 81 82 83 83 83 83 82 81 83 85 85 86
65 68 64 61 60 63 67 72 78 72 72 74 73 69 67 72 76 81 88 88 89 89 87 88 89 88 87 85 86 80 80 78 80 77 78 78 78 79 79 80 81 82 87 91
54 56 53 58 61 62 62 66 69 72 78 80 83 87 89 89 91 91 91 87 86 88 88 86 84 81 82 79 74 71 73 74 75 80 80 82 79 76 79 79 78 80 84 79
51 55 56 56 61 66 71 78 83 86 87 87 87 90 89 88 87 88 86 85 84 83 88 80 80 76 78 83 70 72 76 79 76 74 77 83 85 81 85 85 82 78 71 73
54 55 59 68 73 77 84 85 84 85 88 86 86 87 89 89 88 87 86 90 88 82 75 77 75 78 77 79 77 73 80 85 78 84 87 87 89 87 79 71 73 78 82 81
81 74 79 80 84 86 88 86 86 85 89 89 87 89 89 88 88 87 83 74 84 80 77 79 73 70 68 70 70 85 88 89 88 87 86 85 82 77 79 80 80 81 82 81
84 86 88 87 85 88 88 87 85 88 88 88 88 87 86 86 86 86 88 85 76 85 75 74 74 83 76 83 77 88 84 83 82 80 81 80 80 81 81 80 81 81 80 80
84 82 85 87 88 88 86 87 88 87 87 87 87 85 83 82 81 81 80 80 74 83 76 83 87 88 89 90 89 86 81 80 80 79 80 80 80 80 79 79 80 80 81 79
83 83 84 82 78 79 85 86 83 85 84 83 86 86 81 82 85 75 74 82 85 86 89 89 89 88 86 86 84 83 82 82 82 82 80 76 82 80 79 80 79 80 80 78
82 83 81 78 72 70 77 79 74 76 77 80 80 77 77 74 85 82 82 82 81 79 85 86 84 86 89 88 85 83 82 82 82 81 80 81 81 80 80 79 79 79 79 78
78 69 72 82 74 65 64 64 66 70 68 78 79 83 83 80 78 77 81 79 79 79 83 87 87 85 84 82 83 82 81 77 79 79 79 80 79 79 80 79 79 78 79 79
75 75 68 67 66 66 68 70 74 77 76 81 81 80 77 81 82 77 82 83 84 84 86 86 86 83 85 86 84 83 82 82 79 78 80 81 80 81 80 80 80 80 81 81

GFSNGP_sfc_rhum_117.txt.gz
RH
45 32 40 49 68 40 41 43 34 22 14 22 26 28 36 38 38 39 46 47 46 52 59 60 72 84 85 87 87 87 86 77 78 70 71 71 74 68 74 88 92 90 90 91
45 40 40 57 71 62 36 29 23 21 24 16 34 34 32 38 39 52 48 47 47 47 49 57 67 81 86 88 89 85 85 89 67 67 69 69 67 74 80 78 86 91 92 91
46 34 58 84 62 53 56 54 33 39 26 35 22 67 41 44 55 57 47 46 46 45 48 47 58 75 89 88 87 85 84 84 87 76 79 77 66 67 71 80 74 85 89 94
52 47 90 61 32 49 48 40 45 52 64 62 55 71 63 62 61 55 49 46 46 44 44 44 45 52 66 83 87 88 88 85 86 88 89 83 79 70 70 76 81 84 83 83
57 51 48 52 37 36 44 49 52 46 50 68 66 57 69 56 54 50 48 46 45 42 42 43 45 47 51 61 82 87 88 90 89 87 89 89 93 81 71 71 80 85 84 88
53 51 64 48 35 29 35 75 64 73 70 74 66 86 91 55 47 45 43 43 43 42 42 45 45 45 49 58 68 87 89 90 91 89 88 90 92 94 96 80 75 78 89 97
53 58 36 41 40 41 80 98 77 96 79 84 92 95 80 58 49 44 44 46 42 42 43 45 45 45 48 54 66 73 86 80 82 87 87 90 94 96 98 99 99 99 98 98
60 56 64 59 51 91 92 76 90 91 82 76 65 68 72 65 54 48 46 44 41 43 45 44 43 46 47 57 59 66 76 86 82 86 86 85 93 96 99 99 98 99 98 98
74 70 80 80 93 80 76 90 95 92 72 71 75 68 62 56 50 49 46 43 42 43 46 46 46 48 52 60 59 67 74 78 87 83 88 88 94 96 98 99 99 100 98 98
67 70 88 92 93 89 89 91 92 75 64 62 60 54 53 54 52 48 49 47 46 47 46 50 48 49 52 59 62 69 77 80 83 94 90 92 92 94 96 97 97 96 95 96
67 60 69 68 96 97 89 94 94 93 54 54 55 57 52 55 56 53 52 49 51 54 54 51 51 54 57 61 65 72 80 83 86 87 90 93 95 96 96 98 96 95 96 95
94 99 99 87 95 98 94 96 97 94 71 53 52 57 58 66 69 66 64 61 64 63 61 59 57 63 66 69 71 75 80 84 88 85 86 86 89 94 94 92 91 90 89 91
99 100 100 99 95 93 99 100 100 100 100 95 60 60 68 80 85 84 82 81 81 84 76 75 75 80 80 82 79 86 88 87 86 86 86 88 89 88 93 94 90 88 87 85
87 95 100 94 98 100 98 98 96 85 70 87 80 60 62 79 88 89 91 90 86 86 87 86 86 90 90 95 96 97 97 91 91 90 90 91 92 93 91 90 93 96 91 90
60 54 70 72 66 75 71 70 72 63 63 63 59 59 57 62 71 76 83 90 87 85 87 86 87 91 92 90 90 94 92 91 91 88 88 87 87 87 85 86 89 91 92 92
53 53 47 50 48 49 57 68 74 65 62 65 74 63 63 61 62 66 70 75 85 92 92 89 89 90 90 94 92 90 89 89 84 81 83 85 85 88 85 84 83 84 86 90
58 59 55 54 52 52 52 59 68 74 69 67 69 77 65 68 75 79 83 83 85 91 92 90 91 90 88 95 90 84 82 80 80 76 76 78 79 80 81 84 85 84 88 90
46 48 48 52 54 56 57 61 65 70 77 79 80 84 87 86 88 87 85 81 86 87 89 90 90 85 83 84 74 74 77 76 78 81 78 81 78 76 79 80 80 81 84 82
44 48 51 53 60 62 68 76 81 82 86 86 86 89 87 87 84 84 82 83 84 83 88 81 84 77 75 84 74 75 77 77 74 74 77 80 83 80 84 84 81 78 72 73
49 50 56 63 68 75 83 82 82 82 85 85 85 85 85 85 84 84 81 89 87 82 73 74 76 80 81 80 80 79 83 83 81 86 87 85 86 86 82 74 74 77 80 79
78 70 75 75 79 80 83 82 82 83 85 86 86 87 87 84 85 84 84 76 81 76 74 76 73 72 70 73 80 91 90 91 91 89 85 83 81 76 78 78 78 79 80 79
80 82 83 82 80 83 82 81 79 82 83 83 83 82 87 85 86 84 84 88 72 79 72 72 74 81 77 84 80 90 86 85 85 84 82 79 79 79 79 78 79 79 79 79
79 77 80 82 83 82 80 81 83 82 84 84 85 86 79 81 78 79 83 76 72 79 72 80 82 86 90 89 89 89 87 82 78 78 78 79 79 78 77 77 78 78 78 77
78 77 79 76 73 73 80 80 80 79 80 85 82 81 82 89 86 79 76 76 77 80 85 85 86 86 87 89 90 88 84 81 80 80 77 74 81 78 77 77 77 79 77 77
76 76 77 78 73 66 72 71 80 82 80 78 78 75 75 71 84 84 88 79 78 77 83 84 86 87 89 89 89 89 86 82 79 78 78 78 78 78 77 76 76 77 77 75
76 66 68 76 70 64 62 62 67 70 73 82 82 84 81 78 79 78 78 76 75 76 83 87 88 87 87 86 85 80 76 72 76 75 76 76 76 76 78 77 76 75 77 78
70 78 63 63 62 63 66 68 75 76 76 85 80 78 75 80 80 79 80 82 81 83 85 86 87 86 86 87 84 82 83 82 79 77 78 77 77 78 77 77 78 78 79 79

GFSNGP_sfc_rhum_120.txt.gz
RH
47 36 32 46 44 65 56 41 67 30 18 18 38 59 74 58 64 53 48 49 53 60 63 66 74 79 83 90 88 87 87 90 91 88 83 76 79 86 88 93 93 92 94 94
53 36 29 36 61 84 49 37 37 35 30 40 30 67 72 78 66 61 53 49 48 48 52 62 70 76 81 87 90 87 86 86 84 87 75 79 86 85 88 91 94 93 94 94
68 35 40 67 94 73 93 66 62 57 42 52 71 78 84 91 89 61 50 47 47 48 49 51 63 71 82 84 84 87 88 84 84 84 84 86 82 87 89 90 94 96 95 94
70 54 80 86 42 35 48 93 82 71 69 74 77 77 79 84 91 66 56 48 46 46 47 48 50 56 67 72 80 86 88 88 85 86 86 84 87 89 89 91 94 96 97 96
68 54 41 66 47 49 53 64 75 87 76 76 64 63 71 54 58 61 53 47 46 44 46 48 49 49 54 61 72 81 88 91 91 89 89 89 90 92 93 89 94 94 96 96
70 77 63 80 45 47 38 86 92 90 93 94 69 96 87 52 46 48 45 45 44 43 45 47 48 46 51 59 67 78 84 90 92 93 92 92 94 95 95 94 92 96 98 98
74 69 69 83 58 47 75 96 95 97 96 96 99 96 73 51 48 46 45 44 42 43 47 47 47 46 52 59 68 70 75 82 90 91 94 92 94 95 97 99 99 99 99 99
77 66 85 92 73 89 98 86 95 97 91 92 90 75 70 56 50 45 44 42 41 46 48 47 48 50 55 63 61 68 72 80 84 96 96 94 94 95 97 99 99 99 98 98
93 90 94 77 96 94 90 95 97 99 91 80 65 57 53 51 50 48 47 46 44 45 48 50 49 53 61 65 63 71 77 81 84 85 92 98 97 98 98 98 99 99 98 98
68 82 75 82 80 91 90 94 96 96 77 64 64 61 58 59 56 51 52 53 51 51 52 55 55 58 62 68 67 73 80 83 84 90 89 92 96 95 96 98 100 98 97 98
69 64 70 66 91 93 93 94 93 95 91 61 59 62 68 71 68 70 65 61 60 61 61 61 62 67 70 71 71 76 83 85 86 87 88 90 94 96 96 98 97 97 97 96
81 99 99 84 98 88 98 97 97 96 97 92 60 68 72 79 77 75 76 72 73 72 70 69 70 75 78 77 78 81 84 86 90 88 87 87 87 92 92 94 91 92 93 94
97 90 94 89 95 84 98 100 100 100 100 99 97 77 76 86 88 87 86 87 84 83 80 79 80 85 88 92 88 90 92 88 87 88 90 91 90 90 93 94 92 91 90 88
84 93 93 86 88 98 81 77 92 72 77 86 89 73 75 82 87 90 96 95 92 92 92 92 92 95 95 94 93 94 93 93 92 92 92 92 92 93 92 92 94 96 92 92
53 51 64 73 58 61 58 67 72 73 68 75 69 70 66 72 78 83 88 95 91 92 93 92 93 95 97 93 92 93 92 92 91 92 91 89 88 87 86 88 91 93 92 95
50 50 47 49 47 48 51 64 71 74 79 74 76 86 79 74 74 77 77 80 89 94 95 95 94 96 96 95 93 91 92 91 90 89 93 94 93 94 93 93 94 95 95 96
55 60 54 55 53 53 54 59 70 74 77 81 86 80 77 85 80 86 90 94 92 94 93 95 96 93 95 98 92 89 88 86 87 86 88 87 89 89 86 88 90 92 95 91
45 48 47 54 58 61 67 67 69 74 81 84 90 93 94 94 94 95 96 97 94 92 93 93 94 88 89 93 86 88 89 89 89 90 87 90 87 84 86 86 86 89 92 86
45 50 55 59 63 67 72 77 84 86 90 94 94 94 94 94 93 92 88 89 92 88 94 91 88 82 84 94 89 92 88 86 84 84 87 87 90 87 89 90 90 89 88 88
55 56 60 67 71 75 85 85 86 87 90 92 92 94 92 92 92 94 91 93 92 93 81 77 88 86 87 88 92 93 95 96 96 96 95 93 93 94 91 88 87 88 90 90
81 73 77 77 80 83 88 89 87 86 90 91 93 93 93 90 92 90 87 82 86 90 82 84 83 91 82 92 88 94 95 96 96 94 94 94 92 90 90 89 88 89 89 89
83 88 89 87 84 84 84 84 83 90 89 91 92 90 92 91 95 91 90 93 82 92 80 82 83 92 93 94 90 94 93 94 95 95 95 90 89 89 89 88 89 89 89 89
83 83 85 89 86 81 85 86 90 88 91 90 90 91 88 82 83 87 88 81 77 85 83 87 90 93 96 96 96 95 94 95 95 94 92 90 89 89 88 89 89 89 89 89
80 78 77 77 86 77 84 79 83 83 92 92 90 92 85 94 90 84 78 83 90 89 91 92 93 94 94 95 95 95 95 95 95 94 92 88 89 87 87 90 92 89 90 88
78 84 83 83 86 83 84 73 88 92 92 83 86 82 80 76 90 85 89 87 86 87 90 90 88 90 92 92 93 95 95 95 91 90 88 88 89 89 87 87 88 87 88 88
76 71 75 79 73 71 73 72 78 71 83 92 83 88 87 86 86 86 85 84 85 85 89 91 92 91 91 91 93 94 93 92 90 90 89 88 90 90 88 86 87 88 91 91
76 77 78 81 69 70 70 75 83 87 85 93 86 84 84 89 87 84 86 88 89 91 92 92 92 91 91 92 90 89 90 92 93 91 89 88 88 88 89 90 91 90 89 90

GFSNGP_sfc_rhum_123.txt.gz
RH
62 56 52 50 49 90 97 80 72 59 62 64 79 86 86 87 89 86 79 74 75 74 80 86 90 92 91 90 89 86 85 87 90 89 91 90 89 95 94 96 97 95 96 97
70 54 50 49 87 94 95 94 76 72 73 80 79 82 84 81 84 91 64 57 56 59 69 79 84 90 84 91 90 86 88 86 83 85 85 92 93 96 96 97 98 97 98 98
78 58 57 92 99 94 100 93 94 98 95 78 78 83 88 90 89 88 82 52 53 55 59 68 82 86 92 88 87 88 87 87 87 83 86 85 84 92 96 98 97 98 98 98
79 70 88 82 50 56 84 98 99 94 94 84 87 88 87 87 89 86 81 58 54 56 56 56 62 79 81 81 81 85 88 88 87 89 87 85 85 88 95 98 98 98 98 97
92 89 58 81 67 77 82 97 91 98 95 93 76 69 69 57 58 60 54 52 53 51 52 54 57 62 66 74 79 81 86 89 89 91 91 89 88 90 92 96 99 99 98 98
88 94 95 94 75 67 48 95 94 98 98 97 88 97 98 56 51 50 50 49 51 51 53 55 56 59 66 74 78 81 83 87 88 90 93 94 93 93 94 94 97 98 98 98
90 87 95 83 74 61 78 98 96 99 98 99 99 99 91 65 49 47 47 49 50 52 57 58 58 64 70 73 79 77 79 82 86 88 91 93 95 94 95 98 99 99 99 99
90 91 89 84 68 91 99 96 99 99 97 96 89 87 84 76 61 53 54 52 50 56 59 60 64 67 70 73 72 75 78 82 84 87 89 89 94 95 96 98 98 99 98 98
96 97 98 87 89 93 98 99 99 100 98 95 83 79 72 69 62 62 61 60 56 58 64 67 68 69 78 78 72 77 81 84 85 83 87 91 95 96 98 99 97 97 97 97
89 95 86 88 78 82 97 98 98 98 95 94 92 93 75 71 76 73 69 70 65 66 71 75 69 73 78 80 73 78 83 84 84 88 89 91 90 93 94 97 100 97 97 97
85 75 76 85 88 84 89 96 95 96 95 95 95 84 75 78 75 76 74 72 74 77 75 75 73 78 84 83 76 82 87 88 87 87 87 89 92 94 94 97 97 97 97 97
93 90 92 85 94 87 84 98 96 95 96 95 85 85 80 83 82 79 81 77 76 76 79 78 78 84 88 86 82 84 86 88 93 89 88 88 88 92 91 92 95 95 95 93
94 83 84 87 87 86 92 94 100 100 98 96 96 85 86 87 91 88 91 88 88 92 88 88 89 91 93 94 90 91 91 89 90 89 91 91 91 90 94 92 91 91 92 92
96 99 94 90 90 94 83 91 90 77 86 90 90 94 92 95 90 94 97 97 95 94 94 95 96 96 97 94 94 93 93 93 92 93 93 92 93 95 93 91 94 96 94 96
61 62 78 78 70 75 68 69 77 82 83 86 81 89 86 87 88 92 94 95 93 94 97 95 96 96 97 97 95 96 97 97 98 91 89 89 89 90 90 92 94 96 93 93
55 53 52 57 55 56 70 75 78 80 81 88 91 92 88 86 84 88 88 90 94 97 97 97 98 97 96 97 96 97 98 96 95 95 94 92 92 94 94 93 92 93 94 95
65 67 63 65 66 67 74 73 77 79 80 87 92 88 87 84 86 94 97 97 98 98 98 98 98 95 97 97 97 98 99 95 95 95 93 92 92 93 94 93 93 94 96 92
56 62 63 68 70 76 78 77 80 76 86 92 91 94 96 97 99 98 97 97 95 94 95 97 96 95 97 98 97 98 98 96 94 95 93 93 92 92 93 94 93 93 94 91
59 64 68 67 70 76 79 82 92 90 95 96 97 98 98 97 96 98 95 94 96 97 96 92 95 95 95 98 98 97 96 96 97 97 95 97 95 96 96 95 95 95 94 94
66 67 72 75 77 80 92 94 92 94 95 95 94 96 97 97 96 97 96 99 98 97 89 88 89 96 97 98 98 99 98 97 97 97 96 96 95 95 95 95 95 96 95 95
86 80 87 90 92 92 94 94 93 94 97 96 98 98 98 97 95 95 95 95 96 93 88 90 94 95 96 98 98 99 98 98 98 98 98 99 97 96 95 95 95 95 97 96
96 96 95 95 96 96 95 94 93 95 94 93 93 95 95 97 97 95 97 97 95 96 95 94 95 96 98 98 98 98 98 97 98 98 98 97 97 96 97 95 95 96 96 96
96 96 94 96 94 94 92 96 94 96 96 96 96 97 97 98 97 96 98 94 96 94 96 96 97 97 96 97 97 97 96 96 96 96 97 96 96 96 97 98 97 94 96 95
92 90 90 90 89 96 96 90 93 91 98 94 96 98 96 98 97 98 97 96 96 97 97 95 96 94 94 96 96 96 96 96 96 96 95 93 96 96 96 96 96 96 95 95
91 91 94 91 96 97 97 97 94 97 97 97 97 96 96 97 96 98 98 98 96 96 98 97 96 96 97 96 95 96 96 97 97 96 96 96 96 95 96 94 93 94 96 95
92 96 96 91 95 95 97 96 97 98 97 98 99 98 96 97 98 98 97 96 97 98 98 97 96 97 96 95 95 95 96 96 95 95 95 95 94 94 94 96 96 96 96 95
93 90 96 97 97 96 97 97 98 99 97 98 98 97 98 98 98 98 98 98 99 99 99 98 98 98 98 97 97 97 96 95 96 95 95 96 97 97 95 95 95 95 94 94

GFSNGP_sfc_rhum_129.txt.gz
RH
74 65 53 53 63 87 97 97 97 91 85 92 91 94 87 83 86 86 88 91 81 82 82 81 82 86 88 89 88 84 84 85 89 89 90 90 95 98 97 97 97 96 97 97
60 55 54 61 86 80 86 92 73 72 72 90 93 91 87 88 84 89 94 94 89 75 79 79 79 84 85 85 86 84 85 86 84 84 85 90 90 94 99 98 98 97 97 97
75 61 65 96 95 78 85 85 96 96 98 98 98 97 90 90 87 88 92 97 93 83 72 69 74 78 86 84 81 83 84 83 84 84 86 86 86 88 94 97 98 98 99 98
84 77 88 78 66 61 76 96 89 95 98 100 98 98 92 75 76 68 67 68 75 74 73 68 68 73 79 81 81 84 85 84 83 86 86 85 86 88 91 95 98 99 99 99
96 92 73 82 62 76 86 87 82 98 98 98 97 100 95 83 79 89 62 62 65 67 70 70 71 71 74 81 83 83 87 86 84 86 87 88 92 92 92 94 94 97 98 99
95 95 98 84 62 70 70 91 87 96 96 100 91 94 98 98 83 69 59 61 67 69 71 73 72 70 74 79 83 87 86 86 84 86 86 90 93 94 93 95 96 93 96 98
98 93 92 83 79 69 93 89 90 98 99 99 100 99 99 95 76 72 65 66 65 70 76 73 74 73 79 78 85 81 79 81 84 86 87 88 94 92 93 95 95 98 98 98
96 94 79 84 71 83 92 82 91 99 98 97 95 99 97 84 74 71 72 72 70 74 71 72 76 80 82 84 76 77 77 80 83 87 87 86 94 95 92 95 96 98 97 97
87 90 90 83 78 72 80 90 90 99 94 93 86 92 90 76 74 75 73 73 70 71 72 75 78 82 85 86 74 80 79 82 84 84 88 92 95 95 96 95 97 98 97 97
88 87 93 89 72 77 77 90 84 90 87 85 90 91 91 87 75 75 74 74 72 72 76 80 80 81 87 83 75 78 84 82 81 88 88 90 91 93 97 98 96 96 97 97
90 93 89 83 84 90 82 78 87 85 90 91 84 89 88 89 87 78 77 75 78 84 85 85 80 84 83 84 81 81 83 85 85 84 87 89 93 95 95 97 95 97 98 97
89 92 88 90 85 87 91 91 96 89 84 90 85 85 80 89 92 86 82 82 83 84 85 89 87 87 88 85 85 87 82 84 89 88 88 90 90 93 91 90 88 87 88 93
96 86 86 88 86 90 91 99 96 96 97 90 91 87 89 90 93 91 90 90 91 94 90 90 92 92 96 96 90 90 93 87 90 90 91 95 94 94 94 92 89 92 92 92
94 95 95 89 96 94 95 88 84 79 82 90 93 89 92 94 93 97 99 98 97 96 96 96 96 96 97 97 96 96 97 95 95 96 96 96 97 96 94 93 95 95 91 92
84 75 86 92 85 85 82 80 80 78 82 85 89 89 85 86 91 95 96 96 96 95 95 95 96 95 96 98 98 99 99 99 98 98 98 98 97 95 94 93 94 95 92 90
64 62 66 75 73 75 78 78 76 76 78 87 87 89 91 92 90 85 84 85 95 97 96 96 96 96 97 98 98 98 99 97 97 97 97 97 96 96 96 96 96 96 96 98
67 66 68 72 80 77 78 78 77 78 78 82 84 83 82 85 88 91 96 95 96 96 97 97 96 96 97 98 98 99 99 98 97 96 97 98 97 98 97 97 97 97 97 97
68 64 67 70 75 74 74 73 75 77 84 87 90 95 96 97 99 99 97 96 94 92 92 95 95 95 96 97 96 98 98 98 97 98 97 98 98 97 97 98 97 97 98 96
64 66 65 67 73 75 79 84 91 94 96 96 96 98 99 97 97 97 96 95 96 94 93 92 93 94 95 97 98 98 98 98 98 98 98 99 98 97 98 99 99 99 98 98
71 70 70 75 82 87 97 96 95 95 96 95 96 95 96 97 97 98 96 98 98 98 92 91 93 94 95 97 99 99 98 98 97 98 98 97 98 99 98 98 98 99 99 98
84 85 89 88 95 95 98 98 96 94 96 96 96 96 96 96 95 96 94 92 94 92 91 93 94 95 96 98 97 98 98 98 98 98 98 97 97 97 98 99 99 100 100 100
95 96 97 97 96 96 97 97 96 97 98 97 98 98 98 97 97 96 98 99 96 97 94 93 93 96 96 97 97 98 98 98 98 98 98 97 97 97 98 97 99 99 100 100
96 96 97 98 97 98 98 98 100 98 99 100 100 99 100 100 99 98 98 96 97 96 96 96 95 95 96 97 97 97 97 97 98 98 98 98 98 97 97 99 98 97 98 98
97 97 96 96 97 98 98 96 98 98 100 100 100 100 99 97 98 98 99 98 98 99 100 97 97 96 96 97 97 97 97 97 97 98 98 96 98 98 99 98 99 99 98 97
95 96 97 97 98 100 99 99 98 99 100 100 99 99 97 98 97 99 100 100 100 98 98 98 97 97 96 97 97 97 97 97 98 98 97 97 98 98 98 98 98 98 98 98
98 97 98 96 97 99 100 97 100 100 99 100 100 100 100 100 100 100 100 100 99 99 100 100 99 98 98 97 97 97 98 98 98 98 98 98 97 98 98 98 98 98 98 99
99 98 99 98 98 99 99 98 97 98 99 100 100 100 100 100 100 100 100 100 100 100 100 100 100 100 100 98 98 97 97 98 98 98 98 98 98 98 98 98 98 99 99 98

GFSNGP_sfc_rhum_132.txt.gz
RH
69 60 64 58 64 86 98 88 97 90 87 87 98 98 96 91 79 83 94 97 97 97 94 76 81 85 84 86 86 84 84 86 89 87 87 88 91 95 98 99 99 98 99 99
68 54 59 63 89 86 85 92 79 75 70 85 98 96 92 95 93 87 88 98 99 96 91 77 76 81 83 84 84 82 84 86 85 84 83 88 89 90 94 97 98 98 98 98
73 63 69 96 87 87 89 84 95 97 96 99 98 97 97 96 95 93 80 80 96 98 98 90 77 76 85 84 81 82 83 82 84 85 85 86 87 87 93 95 96 99 98 98
83 80 88 72 66 66 77 91 92 89 97 99 95 100 98 84 85 86 72 72 74 82 83 86 79 73 76 80 83 83 85 83 83 85 85 85 85 90 91 94 96 97 99 99
95 96 77 84 74 80 85 95 87 90 94 97 83 91 91 84 76 76 71 68 68 71 72 73 80 72 72 78 81 84 86 86 85 87 86 87 90 92 92 94 94 96 96 97
95 96 98 76 69 74 74 96 88 86 92 98 88 95 90 92 79 69 68 68 70 71 68 75 78 73 76 78 82 86 84 85 84 86 87 90 94 93 93 92 92 92 94 96
97 91 88 86 80 75 89 92 84 93 98 96 99 100 99 93 72 69 69 70 68 68 73 78 78 77 80 79 85 81 78 81 83 86 88 90 93 91 92 94 93 96 98 98
95 98 89 89 74 74 92 82 84 91 99 99 94 91 94 86 74 72 74 71 69 71 73 74 78 82 82 87 74 77 77 80 83 86 87 87 91 92 91 94 95 96 96 96
86 83 85 87 85 76 82 87 89 94 98 99 94 91 94 92 78 74 73 73 71 76 76 74 79 83 86 86 75 78 80 81 82 83 87 91 95 94 94 93 95 97 96 97
83 82 95 88 82 84 86 86 88 90 97 99 95 93 92 92 84 79 77 78 76 80 83 84 83 83 84 82 80 76 81 82 80 87 87 90 89 91 94 96 96 97 97 97
93 84 94 91 89 90 90 85 83 93 92 92 92 93 90 88 87 80 78 79 76 83 83 88 86 85 85 82 82 81 81 82 85 84 87 91 94 95 94 96 94 97 98 97
88 84 87 91 90 88 92 94 89 85 84 81 83 90 86 94 87 84 86 80 81 81 82 88 88 88 88 88 83 86 82 84 90 88 91 90 92 92 89 92 90 86 87 92
87 88 88 92 88 90 93 96 92 95 95 88 92 89 91 88 94 89 88 88 89 92 90 88 89 90 91 93 89 90 93 88 90 90 91 96 96 95 96 86 79 86 87 86
94 93 94 90 97 97 92 89 85 84 84 87 89 89 90 92 93 97 98 98 96 96 95 96 95 96 96 97 96 96 97 94 95 96 98 98 96 95 94 95 96 95 87 90
88 81 90 92 84 84 81 80 80 82 80 81 84 87 84 90 90 92 95 96 94 94 94 95 96 95 96 97 97 98 98 99 98 98 97 97 96 94 94 95 96 96 92 91
66 72 77 78 78 75 77 78 77 79 78 74 82 83 90 85 89 89 87 87 95 97 96 96 95 95 96 98 98 98 98 95 97 96 96 96 96 96 96 96 96 96 96 96
68 75 74 79 79 76 75 74 77 76 76 77 82 82 79 81 86 89 95 96 97 97 96 97 96 95 96 97 98 99 99 98 97 95 97 97 97 97 97 97 97 97 98 97
67 67 74 72 74 73 72 72 72 78 85 87 89 94 96 97 99 99 97 96 94 92 93 95 94 94 95 97 96 98 98 98 96 97 96 97 96 94 96 96 96 97 98 94
66 66 66 69 72 76 80 86 92 94 96 96 95 96 98 98 97 98 96 96 94 93 93 93 93 93 94 96 97 98 98 97 96 95 94 97 96 96 97 97 98 98 97 97
72 70 71 80 86 89 96 96 95 95 96 96 97 95 96 96 96 95 94 96 98 96 92 91 92 93 95 96 98 97 98 98 96 96 97 96 97 99 98 98 97 99 99 98
92 86 89 93 96 96 98 99 96 95 97 98 96 98 99 98 97 97 95 93 94 92 90 92 93 94 94 96 97 97 98 98 98 98 97 98 97 97 98 98 99 99 100 100
97 97 98 97 96 98 98 97 96 97 97 99 100 98 96 96 95 95 97 98 96 96 94 93 93 94 94 96 96 97 97 98 98 98 98 98 97 98 99 98 100 100 100 100
97 97 98 98 98 99 99 99 100 100 100 100 100 100 100 99 100 99 98 94 95 96 95 96 96 95 96 96 96 97 96 97 97 98 98 98 98 98 98 98 98 99 99 98
98 97 97 97 98 98 98 98 99 100 100 100 100 100 100 98 98 99 98 98 99 98 98 97 98 96 96 96 96 96 96 97 97 97 97 97 98 98 97 98 97 98 99 98
96 98 98 98 98 100 100 100 100 98 99 99 100 99 99 99 98 99 100 100 100 99 98 98 97 97 96 96 96 97 97 97 97 97 97 97 97 97 97 97 98 98 98 98
97 97 97 97 98 100 99 98 100 100 99 99 99 99 98 99 98 99 100 100 100 100 100 100 100 99 99 98 98 97 97 96 96 96 97 97 98 99 99 98 98 98 98 98
98 98 98 98 99 99 99 98 98 100 99 100 100 100 100 100 100 100 100 100 100 100 100 100 100 100 99 100 98 97 97 97 96 97 98 98 97 98 98 98 98 99 98 98

GFSNGP_sfc_rhum_138.txt.gz
RH
24 17 19 22 29 36 78 70 84 44 43 42 65 77 76 69 64 60 62 70 91 97 98 98 98 98 95 88 84 83 78 78 92 86 85 87 94 92 91 93 88 81 84 88
22 18 19 22 34 49 56 59 42 39 40 57 59 68 70 74 64 67 63 69 82 90 95 97 95 87 88 95 86 86 92 90 83 88 86 89 90 93 94 93 93 98 98 96
26 32 38 65 60 63 96 54 66 83 91 78 74 75 84 84 67 70 61 65 78 86 90 90 91 86 88 77 78 81 97 90 84 90 94 92 92 91 94 96 93 95 95 98
42 51 72 61 40 38 52 68 62 69 82 85 75 71 83 65 70 63 58 57 58 60 64 65 71 73 78 68 69 70 72 73 81 84 87 85 87 91 92 93 95 95 94 96
61 45 49 67 55 49 44 52 58 74 76 74 67 64 83 62 59 55 52 48 51 50 55 57 62 62 63 74 68 69 72 73 74 76 81 85 89 90 91 91 94 93 92 90
59 58 56 54 47 44 44 69 56 66 71 78 70 75 67 66 56 52 46 46 48 48 50 56 60 59 60 66 72 73 71 73 72 74 77 83 85 86 88 87 93 90 89 95
56 58 53 49 46 50 68 78 59 74 70 76 94 84 76 63 55 49 47 47 47 47 51 55 57 60 60 60 71 68 66 67 69 73 75 78 81 81 81 82 84 90 92 91
56 60 61 45 53 60 60 54 60 66 65 74 74 70 67 59 55 52 50 48 47 49 51 52 55 58 55 61 62 59 61 63 66 72 76 74 79 79 81 82 87 90 92 93
52 53 56 46 49 53 51 56 61 63 60 70 74 73 62 57 54 53 53 51 48 49 53 55 57 57 59 61 59 58 59 61 63 66 71 80 87 86 84 84 91 97 93 95
52 62 51 53 51 52 51 54 56 57 60 63 73 71 66 56 53 53 54 56 55 51 55 60 59 59 61 62 58 57 60 62 59 69 71 77 77 83 88 91 92 94 95 96
51 49 57 56 54 57 54 57 58 66 57 60 66 69 65 60 59 56 55 57 59 63 61 60 60 61 61 63 56 58 63 64 64 64 66 74 84 86 87 93 92 94 96 94
73 52 50 56 58 59 61 63 63 61 61 57 65 66 60 64 62 58 59 56 60 64 66 66 62 63 63 65 60 62 61 63 70 67 70 70 73 87 80 82 83 84 84 90
88 66 74 71 63 58 69 79 75 85 72 66 71 65 65 64 75 76 72 72 72 80 77 77 77 75 76 76 72 74 76 73 70 73 77 80 82 84 89 93 84 82 83 85
76 91 91 79 96 79 73 75 69 57 56 60 63 63 65 73 74 84 87 88 86 85 86 88 89 91 90 90 89 86 86 82 84 87 88 88 85 85 85 86 89 90 83 84
64 62 81 87 78 76 64 57 57 56 54 56 56 61 62 64 67 71 74 80 83 81 86 88 89 90 91 91 93 92 91 90 86 87 88 85 85 84 83 84 85 85 79 77
62 63 63 60 57 57 59 58 56 55 54 56 60 64 65 62 60 58 57 62 79 86 90 89 89 91 90 95 95 89 86 83 77 76 77 78 79 79 78 78 77 78 81 84
64 66 61 63 62 57 55 53 54 55 56 61 66 63 60 66 67 72 79 84 85 87 86 89 90 88 89 90 95 92 83 74 75 70 72 72 74 74 74 78 79 78 82 86
55 53 52 55 54 56 56 56 57 59 67 73 80 86 88 88 88 85 85 82 80 79 85 85 85 83 82 83 78 76 79 80 74 76 73 78 72 70 75 74 72 74 77 76
48 51 51 50 51 54 59 68 78 83 87 87 86 88 86 85 82 82 80 80 81 79 85 77 79 75 76 84 81 74 76 80 74 74 75 78 80 72 78 81 80 81 75 76
49 50 54 60 62 69 84 82 81 87 85 85 86 84 84 87 87 82 77 82 82 82 72 72 71 72 76 78 85 73 79 81 73 79 83 80 84 86 81 77 76 81 85 83
68 62 74 79 84 86 88 87 85 85 89 87 84 88 86 84 84 78 74 68 75 78 68 70 70 72 66 75 72 87 88 85 83 82 84 86 84 81 82 83 82 84 85 84
85 86 88 85 85 89 86 82 85 90 88 89 90 88 79 78 80 85 84 81 66 82 67 68 71 84 77 81 78 87 84 85 88 87 85 84 85 85 84 82 82 83 83 84
85 84 85 87 83 85 87 87 87 86 87 86 86 81 76 74 72 74 76 71 62 74 66 76 85 88 83 86 87 88 87 86 87 85 86 86 85 85 83 82 81 80 81 79
84 82 84 85 86 83 85 90 83 89 89 86 91 91 77 81 82 69 65 70 78 81 83 88 89 85 80 86 87 86 86 87 87 87 83 83 86 84 83 83 82 80 79 76
82 85 87 88 81 74 80 84 84 85 81 78 79 76 74 70 82 78 79 77 76 72 78 80 80 78 84 85 85 85 86 86 87 87 86 86 86 87 85 82 83 82 81 79
83 68 68 71 66 63 63 66 66 69 66 74 72 78 78 75 73 72 76 77 73 71 77 81 82 82 83 82 83 83 84 80 83 81 83 84 83 82 83 82 80 80 81 81
72 69 69 67 63 60 59 63 72 74 71 76 75 78 72 79 79 71 79 77 78 78 80 80 80 78 78 80 79 79 80 82 84 82 83 84 84 84 84 84 84 83 82 81